Orbital Elements at Epoch 2459200.5 (2020-Dec-17.0) TDB
Reference: JPL 17 (heliocentric ecliptic J2000)
Element | Value | Uncertainty (1-sigma) | Units |
e | .03603142999028327 | 6.1375e-08 | |
a | 2.568290020163952 | 1.7844e-08 | au |
q | 2.475750858107672 | 1.592e-07 | au |
i | 9.567327056431967 | 5.5411e-06 | deg |
node | 71.42855457618876 | 3.7309e-05 | deg |
peri | 298.7831371703508 | 9.1088e-05 | deg |
M | 247.021653757038 | 8.883e-05 | deg |
tp | 2459672.299238645559 (2022-Apr-02.79923865) | 0.00037303 | TDB |
period | 1503.365304596869 4.12 | 1.5667e-05 4.289e-08 | d yr |
n | .2394627565896466 | 2.4956e-09 | deg/d |
Q | 2.660829182220233 | 1.8487e-08 | au |
|
| | Orbit Determination Parameters
Additional Information
|